When you browse on this site, cookies collect data to enhance your experience and personalize the content and advertising you see.
Visit our Privacy Policy to learn more. By continuing to use the site, you agree to this use of cookies and data.
  • In Schweiz
  • Länderverzeichnis
  • Für 7 Tage
  • Wassertemperatur
  • Wetterkarte
  • Widgets
  • user-avatar
    Anmelden

    Stündliche Wetter Yanmen

    Heute, 26 August, Montag

    Zeit Temperatur Niederschläge Wind Luftdruck Luftfeuchtigkeit
    00:00 +28°C° 0 mm 1 m/S 732 mmHg 73%
    01:00 +27°C° 0 mm 1 m/S 732 mmHg 72%
    02:00 +27°C° 0 mm 1 m/S 732 mmHg 72%
    03:00 +27°C° 0 mm 1 m/S 732 mmHg 72%
    04:00 +27°C° 0 mm 1 m/S 732 mmHg 72%
    05:00 +28°C° 0.1 mm 1 m/S 732 mmHg 73%
    06:00 +28°C° 0.1 mm 1 m/S 732 mmHg 74%
    07:00 +28°C° 0 mm 1 m/S 732 mmHg 73%
    08:00 +28°C° 1.8 mm 1 m/S 732 mmHg 78%
    09:00 +27°C° 1.8 mm 1 m/S 732 mmHg 83%
    10:00 +27°C° 1.8 mm 1 m/S 732 mmHg 89%
    11:00 +27°C° 0.5 mm 1 m/S 731 mmHg 86%
    12:00 +28°C° 0.5 mm 1 m/S 731 mmHg 84%
    13:00 +28°C° 0.5 mm 2 m/S 731 mmHg 82%
    14:00 +29°C° 0.1 mm 2 m/S 730 mmHg 78%
    15:00 +30°C° 0.1 mm 2 m/S 730 mmHg 75%
    16:00 +31°C° 0.1 mm 3 m/S 730 mmHg 72%
    17:00 +30°C° 0.3 mm 2 m/S 730 mmHg 79%
    18:00 +29°C° 0.3 mm 1 m/S 731 mmHg 85%
    19:00 +27°C° 0.3 mm 1 m/S 731 mmHg 92%
    20:00 +27°C° 0.2 mm 1 m/S 731 mmHg 92%
    21:00 +27°C° 0.2 mm 1 m/S 732 mmHg 93%
    22:00 +25°C° 0.2 mm 0 m/S 732 mmHg 93%
    23:00 +25°C° 0.4 mm 0 m/S 732 mmHg 94%

    Morgen, 27 August, Dienstag

    Zeit Temperatur Niederschläge Wind Luftdruck Luftfeuchtigkeit
    00:00 +27°C° 0.4 mm 1 m/S 732 mmHg 94%
    01:00 +26°C° 0.4 mm 1 m/S 732 mmHg 95%
    02:00 +24°C° 0.1 mm 0 m/S 732 mmHg 95%
    03:00 +24°C° 0.1 mm 0 m/S 732 mmHg 95%
    04:00 +24°C° 0.1 mm 0 m/S 732 mmHg 95%
    05:00 +24°C° 0.5 mm 0 m/S 732 mmHg 96%
    06:00 +24°C° 0.5 mm 0 m/S 733 mmHg 96%
    07:00 +24°C° 0.5 mm 0 m/S 733 mmHg 97%
    08:00 +24°C° 0.6 mm 0 m/S 733 mmHg 97%
    09:00 +24°C° 0.6 mm 0 m/S 734 mmHg 96%
    10:00 +25°C° 0.6 mm 0 m/S 734 mmHg 96%
    11:00 +27°C° 0.2 mm 0 m/S 734 mmHg 88%
    12:00 +28°C° 0.2 mm 0 m/S 734 mmHg 80%
    13:00 +32°C° 0.2 mm 1 m/S 733 mmHg 71%
    14:00 +33°C° 0.4 mm 1 m/S 733 mmHg 70%
    15:00 +33°C° 0.4 mm 1 m/S 732 mmHg 69%
    16:00 +33°C° 0.4 mm 1 m/S 732 mmHg 67%
    17:00 +31°C° 0 mm 1 m/S 733 mmHg 74%
    18:00 +30°C° 0 mm 1 m/S 733 mmHg 81%
    19:00 +28°C° 0 mm 1 m/S 734 mmHg 88%
    20:00 +28°C° 0.2 mm 1 m/S 734 mmHg 90%
    21:00 +27°C° 0.2 mm 1 m/S 735 mmHg 92%
    22:00 +25°C° 0.2 mm 0 m/S 735 mmHg 93%
    23:00 +25°C° 0.2 mm 0 m/S 735 mmHg 94%

    übermorgen, 28 August, Mittwoch

    Zeit Temperatur Niederschläge Wind Luftdruck Luftfeuchtigkeit
    00:00 +24°C° 0.2 mm 0 m/S 735 mmHg 94%
    01:00 +24°C° 0.2 mm 0 m/S 735 mmHg 95%
    02:00 +24°C° 0.3 mm 0 m/S 735 mmHg 96%
    03:00 +24°C° 0.3 mm 0 m/S 735 mmHg 96%
    04:00 +23°C° 0.3 mm 0 m/S 735 mmHg 97%
    05:00 +26°C° 0 mm 1 m/S 735 mmHg 95%
    06:00 +27°C° 0 mm 1 m/S 736 mmHg 94%
    07:00 +27°C° 0 mm 1 m/S 736 mmHg 92%
    08:00 +29°C° 0.2 mm 1 m/S 736 mmHg 87%
    09:00 +30°C° 0.2 mm 1 m/S 736 mmHg 82%
    10:00 +30°C° 0.2 mm 0 m/S 736 mmHg 76%
    11:00 +31°C° 0.8 mm 0 m/S 735 mmHg 71%
    12:00 +34°C° 0.8 mm 1 m/S 735 mmHg 66%
    13:00 +35°C° 0.8 mm 1 m/S 734 mmHg 61%
    14:00 +35°C° 0.8 mm 1 m/S 734 mmHg 64%
    15:00 +34°C° 0.8 mm 1 m/S 733 mmHg 67%
    16:00 +34°C° 0.8 mm 2 m/S 733 mmHg 70%
    17:00 +32°C° 1 mm 2 m/S 733 mmHg 77%
    18:00 +30°C° 1 mm 2 m/S 734 mmHg 84%
    19:00 +28°C° 1 mm 2 m/S 734 mmHg 92%
    20:00 +27°C° 0.4 mm 2 m/S 735 mmHg 93%
    21:00 +26°C° 0.4 mm 2 m/S 735 mmHg 93%
    22:00 +25°C° 0.4 mm 1 m/S 736 mmHg 94%
    23:00 +25°C° 0.3 mm 1 m/S 735 mmHg 94%

    29 August, Donnerstag

    Zeit Temperatur Niederschläge Wind Luftdruck Luftfeuchtigkeit
    00:00 +25°C° 0.3 mm 1 m/S 735 mmHg 94%
    01:00 +25°C° 0.3 mm 1 m/S 735 mmHg 94%
    02:00 +24°C° 1 mm 1 m/S 735 mmHg 95%
    03:00 +24°C° 1 mm 1 m/S 735 mmHg 95%
    04:00 +24°C° 1 mm 1 m/S 734 mmHg 95%
    05:00 +24°C° 2.1 mm 1 m/S 735 mmHg 95%
    06:00 +24°C° 2.1 mm 1 m/S 735 mmHg 95%
    07:00 +24°C° 2.1 mm 1 m/S 736 mmHg 96%
    08:00 +24°C° 1.4 mm 1 m/S 736 mmHg 96%
    09:00 +24°C° 1.4 mm 2 m/S 736 mmHg 96%
    10:00 +23°C° 1.4 mm 2 m/S 736 mmHg 96%
    11:00 +23°C° 0.9 mm 2 m/S 736 mmHg 96%
    12:00 +23°C° 0.9 mm 2 m/S 736 mmHg 95%
    13:00 +22°C° 0.9 mm 3 m/S 736 mmHg 95%
    14:00 +23°C° 0.1 mm 2 m/S 735 mmHg 94%
    15:00 +23°C° 0.1 mm 2 m/S 735 mmHg 94%
    16:00 +23°C° 0.1 mm 2 m/S 735 mmHg 93%
    17:00 +23°C° 0 mm 2 m/S 735 mmHg 93%
    18:00 +23°C° 0 mm 1 m/S 735 mmHg 93%
    19:00 +23°C° 0 mm 1 m/S 735 mmHg 93%
    20:00 +23°C° 0 mm 1 m/S 736 mmHg 93%
    21:00 +20°C° 0 mm 0 m/S 736 mmHg 92%
    22:00 +20°C° 0 mm 0 m/S 736 mmHg 92%
    23:00 +20°C° 0 mm 0 m/S 736 mmHg 91%

    30 August, Freitag

    Zeit Temperatur Niederschläge Wind Luftdruck Luftfeuchtigkeit
    00:00 +20°C° 0 mm 0 m/S 736 mmHg 90%
    01:00 +20°C° 0 mm 0 m/S 735 mmHg 89%
    02:00 +20°C° 0.2 mm 0 m/S 735 mmHg 90%
    03:00 +20°C° 0.2 mm 0 m/S 735 mmHg 90%
    04:00 +20°C° 0.2 mm 0 m/S 735 mmHg 90%
    05:00 +20°C° 0.4 mm 0 m/S 735 mmHg 91%
    06:00 +21°C° 0.4 mm 0 m/S 735 mmHg 92%
    07:00 +21°C° 0.4 mm 0 m/S 736 mmHg 92%
    08:00 +21°C° 0.4 mm 0 m/S 736 mmHg 92%
    09:00 +21°C° 0.4 mm 0 m/S 736 mmHg 92%
    10:00 +21°C° 0.4 mm 0 m/S 736 mmHg 92%
    11:00 +23°C° 0.4 mm 1 m/S 736 mmHg 92%
    12:00 +23°C° 0.4 mm 1 m/S 736 mmHg 92%
    13:00 +23°C° 0.4 mm 1 m/S 735 mmHg 92%
    14:00 +23°C° 0.5 mm 1 m/S 735 mmHg 93%
    15:00 +23°C° 0.5 mm 1 m/S 735 mmHg 94%
    16:00 +22°C° 0.5 mm 1 m/S 734 mmHg 95%
    17:00 +22°C° 0 mm 1 m/S 735 mmHg 95%
    18:00 +20°C° 0 mm 0 m/S 735 mmHg 94%
    19:00 +20°C° 0 mm 0 m/S 735 mmHg 94%
    20:00 +20°C° 0 mm 0 m/S 736 mmHg 93%
    21:00 +20°C° 0 mm 0 m/S 736 mmHg 93%
    22:00 +20°C° 0 mm 0 m/S 736 mmHg 92%
    23:00 +20°C° 0 mm 0 m/S 736 mmHg 93%

    31 August, Samstag

    Zeit Temperatur Niederschläge Wind Luftdruck Luftfeuchtigkeit
    00:00 +22°C° 0 mm 1 m/S 736 mmHg 93%
    01:00 +22°C° 0 mm 1 m/S 736 mmHg 93%
    02:00 +22°C° 0.1 mm 1 m/S 736 mmHg 94%
    03:00 +22°C° 0.1 mm 1 m/S 736 mmHg 94%
    04:00 +21°C° 0.1 mm 1 m/S 736 mmHg 94%
    05:00 +20°C° 0.6 mm 2 m/S 736 mmHg 95%
    06:00 +20°C° 0.6 mm 2 m/S 737 mmHg 95%
    07:00 +20°C° 0.6 mm 2 m/S 737 mmHg 96%
    08:00 +19°C° 1.3 mm 2 m/S 737 mmHg 96%
    09:00 +19°C° 1.3 mm 2 m/S 738 mmHg 96%
    10:00 +19°C° 1.3 mm 2 m/S 738 mmHg 96%
    11:00 +19°C° 2.1 mm 2 m/S 738 mmHg 96%
    12:00 +18°C° 2.1 mm 2 m/S 738 mmHg 96%
    13:00 +18°C° 2.1 mm 2 m/S 738 mmHg 96%
    14:00 +18°C° 1.4 mm 2 m/S 738 mmHg 96%
    15:00 +18°C° 1.4 mm 2 m/S 737 mmHg 96%
    16:00 +18°C° 1.4 mm 2 m/S 737 mmHg 96%
    17:00 +19°C° 1.1 mm 1 m/S 737 mmHg 97%
    18:00 +19°C° 1.1 mm 1 m/S 738 mmHg 97%
    19:00 +17°C° 1.1 mm 0 m/S 738 mmHg 98%
    20:00 +19°C° 0.5 mm 1 m/S 738 mmHg 97%
    21:00 +19°C° 0.5 mm 1 m/S 738 mmHg 97%
    22:00 +19°C° 0.5 mm 1 m/S 738 mmHg 97%
    23:00 +19°C° 0 mm 1 m/S 738 mmHg 97%
    Mehr zeigen